Location: Berg
(48.4333°N, 13.9167°E)
Time: 23:17:50
(UTC+00:00)

KORONAS-FOTON - Pass Details

Date: 18 September 2020
Orbit: 505 x 532 km, 82.4° (Epoch: 31 October)

Event Time Altitude Azimuth Distance (km) Brightness Sun altitude
Rises 19:20:40 0° 348° (NNW) 2,689 8.0 -21.5°
Reaches altitude 10° 19:22:49 10° 346° (NNW) 1,795 7.1 -21.9°
Maximum altitude 19:26:45 71° 263° (W) 570 4.0 -22.4°
Enters shadow 19:27:18 60° 211° (SSW) 616 4.0 -22.5°
